Retour au catalogue

FLOCK 4G 12

ActifScienceSSO
NORAD 62625·PAYLOAD·🇺🇸 United States

Lancé Jan 14, 2025 depuis Vandenberg Space Force Base

Loading…

Prochains Passages (prochaines 24 heures)

TLE

FraisSource: CelesTrak SupGP

Époque: Sep 14, 2026, 14:44 UTC

1 62625C 25009S   26257.61417824  .00010391  00000+0  34991-3 0  2571
2 62625  97.3970 339.1069 0003763  15.0987 134.7933 15.30809103    19

Suivez FLOCK 4G 12 en temps réel avec AllMySat

Download on the App Store